KC2DUX Weather Reports


Display with metric or nautical units.
time (UTC)temp
F
wind
direction
speed
MPH
gust
MPH
rain 1hr
in
rain 24hr
in
rain mn
in
humidity
%
barometer
mb
20260510001108 63 41 0.0 4.0 0.00 0.00 0.00 74 1009.3
20260510000504 64 71 1.0 5.0 0.00 0.00 0.00 75 1009.3
20260510000008 64 61 0.0 5.0 0.00 0.00 0.00 77 1009.2
20260509235507 65 109 0.0 2.0 0.00 0.00 0.00 77 1009.2
20260509235003 65 109 0.0 2.0 0.00 0.00 0.00 77 1009.1
20260509234503 66 109 0.0 2.0 0.00 0.00 0.00 76 1009.0
20260509234005 66 206 0.0 1.0 0.00 0.00 0.00 75 1008.9
20260509233505 67 206 0.0 1.0 0.00 0.00 0.00 75 1008.8
20260509233004 67 206 0.0 1.0 0.00 0.00 0.00 74 1008.8
20260509232503 67 206 0.0 0.0 0.00 0.00 0.00 74 1008.8
20260509232004 67 219 0.0 2.0 0.00 0.00 0.00 73 1008.8
20260509231503 67 215 1.0 3.0 0.00 0.00 0.00 73 1008.8
20260509231002 67 215 1.0 7.0 0.00 0.00 0.00 73 1008.7
20260509230501 67 212 2.0 7.0 0.00 0.00 0.00 73 1008.6
20260509230003 68 214 3.0 7.0 0.00 0.00 0.00 73 1008.6
20260509225501 68 229 3.0 7.0 0.00 0.00 0.00 72 1008.6
20260509225001 68 252 3.0 10.0 0.00 0.00 0.00 72 1008.7
20260509224501 68 225 5.0 10.0 0.00 0.00 0.00 72 1008.7
20260509224001 68 219 2.0 6.0 0.00 0.00 0.00 72 1008.6
20260509223501 68 208 3.0 6.0 0.00 0.00 0.00 72 1008.7
20260509223001 68 208 0.0 5.0 0.00 0.00 0.00 72 1008.7
20260509222601 68 208 0.0 4.0 0.00 0.00 0.00 72 1008.7
20260509222501 68 205 0.0 4.0 0.00 0.00 0.00 72 1008.7
20260509222100 68 259 0.0 4.0 0.00 0.00 0.00 72 1008.7
20260509221600 68 221 0.0 2.0 0.00 0.00 0.00 72 1008.7
20260509221059 68 212 0.0 2.0 0.00 0.00 0.00 73 1008.8
20260509220558 68 213 0.0 3.0 0.00 0.00 0.00 72 1008.8
20260509220100 68 213 0.0 12.0 0.00 0.00 0.00 72 1008.7
20260509215559 68 226 0.0 6.0 0.00 0.00 0.00 73 1008.6
20260509215059 67 210 0.0 1.0 0.00 0.00 0.00 74 1008.6
20260509214602 67 215 0.0 7.0 0.00 0.00 0.00 73 1008.6
20260509214100 67 229 0.0 10.0 0.00 0.00 0.00 73 1008.6
20260509213558 67 217 3.0 11.0 0.00 0.00 0.00 73 1008.5
20260509213058 67 226 2.0 10.0 0.00 0.00 0.00 73 1008.6
20260509212557 67 152 0.0 12.0 0.00 0.00 0.00 73 1008.6
20260509212057 68 215 5.0 16.0 0.00 0.00 0.00 73 1008.7
20260509211557 68 213 8.0 16.0 0.00 0.00 0.00 72 1008.7
20260509211058 68 218 6.0 12.0 0.00 0.00 0.00 72 1008.7
20260509210556 68 238 6.0 15.0 0.00 0.00 0.00 72 1008.5
20260509210106 68 205 8.0 15.0 0.00 0.00 0.00 71 1008.5
20260509205555 68 209 2.0 11.0 0.00 0.00 0.00 70 1008.5
20260509205054 68 238 0.0 7.0 0.00 0.00 0.00 70 1008.5
20260509204557 68 187 0.0 16.0 0.00 0.00 0.00 69 1008.6
20260509204054 69 106 8.0 16.0 0.00 0.00 0.00 69 1008.7
20260509203553 69 222 7.0 17.0 0.00 0.00 0.00 69 1008.7
20260509203052 69 205 9.0 17.0 0.00 0.00 0.00 68 1008.8
20260509202552 69 240 10.0 16.0 0.00 0.00 0.00 66 1008.8
20260509202054 69 218 6.0 19.0 0.00 0.00 0.00 67 1008.8
20260509201550 69 188 12.0 19.0 0.00 0.00 0.00 66 1008.8
20260509201048 69 235 7.0 17.0 0.00 0.00 0.00 65 1008.9
20260509200548 69 229 7.0 20.0 0.00 0.00 0.00 64 1009.0
20260509200103 70 223 4.0 19.0 0.00 0.00 0.00 65 1009.1
20260509195547 69 171 0.0 19.0 0.00 0.00 0.00 65 1009.0
20260509195045 69 232 1.0 18.0 0.00 0.00 0.00 67 1009.1
20260509194545 68 221 3.0 19.0 0.00 0.00 0.00 67 1009.2
20260509194044 69 252 1.0 19.0 0.00 0.00 0.00 68 1009.3
20260509193543 68 219 4.0 18.0 0.00 0.00 0.00 70 1009.3
20260509193043 67 248 6.0 18.0 0.00 0.00 0.00 71 1009.6
20260509192542 67 223 7.0 16.0 0.00 0.00 0.00 71 1009.6
20260509192042 67 211 2.0 14.0 0.00 0.00 0.00 70 1009.6
20260509191542 67 215 2.0 15.0 0.00 0.00 0.00 70 1009.5
20260509191041 66 212 6.0 14.0 0.00 0.00 0.00 73 1009.7
20260509190538 65 213 7.0 17.0 0.00 0.00 0.00 73 1009.8
20260509190038 64 229 8.0 17.0 0.00 0.00 0.00 74 1009.9
20260509185537 64 194 5.0 18.0 0.00 0.00 0.00 78 1010.0
20260509185036 63 224 7.0 18.0 0.00 0.00 0.00 78 1010.1
20260509184553 63 254 10.0 18.0 0.00 0.00 0.00 76 1010.1
20260509184036 63 204 7.0 15.0 0.00 0.00 0.00 77 1010.1
20260509183535 63 215 9.0 15.0 0.00 0.00 0.00 77 1010.1
20260509183035 63 250 9.0 19.0 0.00 0.00 0.00 78 1010.3
20260509182534 64 226 9.0 21.0 0.00 0.00 0.00 76 1010.3
20260509182033 64 215 8.0 21.0 0.00 0.00 0.00 75 1010.3
20260509181536 65 221 9.0 22.0 0.00 0.00 0.00 74 1010.3
20260509181034 65 232 11.0 20.0 0.00 0.00 0.00 73 1010.3
20260509180533 65 244 11.0 20.0 0.00 0.00 0.00 74 1010.4
20260509180032 66 211 8.0 21.0 0.00 0.00 0.00 74 1010.4
20260509175533 66 220 11.0 21.0 0.00 0.00 0.00 73 1010.5
20260509175033 66 234 10.0 25.0 0.00 0.00 0.00 73 1010.4
20260509174535 66 269 15.0 25.0 0.00 0.00 0.00 72 1010.3
20260509174031 67 221 10.0 24.0 0.00 0.00 0.00 70 1010.3
20260509173529 67 239 11.0 24.0 0.00 0.00 0.00 70 1010.4
20260509173029 67 246 9.0 23.0 0.00 0.00 0.00 69 1010.5
20260509172527 67 232 14.0 24.0 0.00 0.00 0.00 67 1010.6
20260509172027 67 214 12.0 24.0 0.00 0.00 0.00 69 1010.7
20260509171532 67 203 12.0 22.0 0.00 0.00 0.00 69 1010.7
20260509171026 68 223 8.0 23.0 0.00 0.00 0.00 68 1010.9
20260509170526 68 250 13.0 24.0 0.00 0.00 0.00 68 1011.0
20260509170025 68 225 11.0 26.0 0.00 0.00 0.00 64 1011.0
20260509165530 68 223 9.0 21.0 0.00 0.00 0.00 64 1011.0
20260509165024 68 211 11.0 21.0 0.00 0.00 0.00 64 1011.0
20260509164524 69 194 10.0 18.0 0.00 0.00 0.00 66 1010.8
20260509164024 70 244 12.0 19.0 0.00 0.00 0.00 65 1010.8
20260509163531 69 227 10.0 19.0 0.00 0.00 0.00 65 1010.8
20260509163025 69 232 8.0 18.0 0.00 0.00 0.00 64 1010.6
20260509162523 70 239 8.0 15.0 0.00 0.00 0.00 64 1010.8
20260509162021 69 184 6.0 16.0 0.00 0.00 0.00 66 1010.9
20260509161522 68 217 7.0 16.0 0.00 0.00 0.00 67 1011.0
20260509161018 68 215 7.0 14.0 0.00 0.00 0.00 67 1011.2
20260509160517 68 221 5.0 12.0 0.00 0.00 0.00 68 1011.4
20260509160020 67 236 6.0 14.0 0.00 0.00 0.00 66 1011.6
20260509155515 67 223 6.0 14.0 0.00 0.00 0.00 68 1011.7
20260509155016 66 229 6.0 15.0 0.00 0.00 0.00 68 1011.8
20260509154516 66 211 8.0 15.0 0.00 0.00 0.00 69 1011.9
20260509154012 66 198 8.0 15.0 0.00 0.00 0.00 68 1012.0
20260509153513 67 190 6.0 13.0 0.00 0.00 0.00 67 1012.1
20260509153028 67 229 7.0 12.0 0.00 0.00 0.00 66 1012.1
20260509152512 67 211 6.0 11.0 0.00 0.00 0.00 66 1012.1
20260509152022 67 197 5.0 11.0 0.00 0.00 0.00 66 1012.2
20260509151510 67 206 5.0 16.0 0.00 0.00 0.00 66 1012.3
20260509151010 67 229 6.0 16.0 0.00 0.00 0.00 66 1012.3
20260509150510 67 205 9.0 15.0 0.00 0.00 0.00 64 1012.3
20260509150011 67 213 6.0 14.0 0.00 0.00 0.00 64 1012.3
20260509145509 67 217 8.0 14.0 0.00 0.00 0.00 64 1012.3
20260509145015 66 186 8.0 17.0 0.00 0.00 0.00 63 1012.2
20260509144522 66 210 7.0 17.0 0.00 0.00 0.00 65 1012.3
20260509144014 66 238 8.0 19.0 0.00 0.00 0.00 65 1012.2
20260509143507 66 228 9.0 19.0 0.00 0.00 0.00 65 1012.2
20260509143007 65 225 7.0 16.0 0.00 0.00 0.00 65 1012.2
20260509142508 65 215 5.0 15.0 0.00 0.00 0.00 67 1012.2
20260509142008 65 221 7.0 15.0 0.00 0.00 0.00 66 1012.2
20260509141513 65 228 7.0 12.0 0.00 0.00 0.00 66 1012.3
20260509141008 65 183 5.0 11.0 0.00 0.00 0.00 67 1012.2
20260509140506 65 226 6.0 14.0 0.00 0.00 0.00 68 1012.2
20260509140007 65 196 7.0 14.0 0.00 0.00 0.00 67 1012.2
20260509135504 65 223 8.0 16.0 0.00 0.00 0.00 67 1012.3
20260509135004 65 215 8.0 17.0 0.00 0.00 0.00 65 1012.2
20260509134503 66 199 9.0 17.0 0.00 0.00 0.00 64 1012.3
20260509134003 66 242 7.0 15.0 0.00 0.00 0.00 66 1012.3
20260509133504 65 230 7.0 15.0 0.00 0.00 0.00 65 1012.3
20260509133007 65 220 7.0 14.0 0.00 0.00 0.00 65 1012.3
20260509132502 65 236 6.0 13.0 0.00 0.00 0.00 64 1012.4
20260509132001 65 222 7.0 13.0 0.00 0.00 0.00 64 1012.4
20260509131501 65 245 9.0 17.0 0.00 0.00 0.00 62 1012.5
20260509131001 65 206 7.0 16.0 0.00 0.00 0.00 62 1012.4
20260509130501 65 271 9.0 16.0 0.00 0.00 0.00 61 1012.4
20260509130001 66 225 9.0 16.0 0.00 0.00 0.00 61 1012.4
20260509125559 66 229 8.0 16.0 0.00 0.00 0.00 62 1012.4
20260509125101 65 224 8.0 16.0 0.00 0.00 0.00 61 1012.5
20260509124600 65 208 5.0 14.0 0.00 0.00 0.00 63 1012.4
20260509124057 65 221 9.0 18.0 0.00 0.00 0.00 62 1012.4
20260509123656 64 237 7.0 18.0 0.00 0.00 0.00 63 1012.3
20260509123130 64 225 8.0 18.0 0.00 0.00 0.00 62 1012.4
20260509122555 64 238 8.0 17.0 0.00 0.00 0.00 62 1012.4
20260509122053 64 215 6.0 17.0 0.00 0.00 0.00 64 1012.4
20260509121610 63 209 8.0 16.0 0.00 0.00 0.00 64 1012.4
20260509121051 63 237 7.0 14.0 0.00 0.00 0.00 65 1012.5
20260509120551 63 196 6.0 14.0 0.00 0.00 0.00 64 1012.6
20260509120049 62 163 7.0 14.0 0.00 0.00 0.00 66 1012.5
20260509115548 62 215 9.0 16.0 0.00 0.00 0.00 64 1012.6
20260509115047 62 245 6.0 13.0 0.00 0.00 0.00 66 1012.5
20260509114550 62 238 6.0 11.0 0.00 0.00 0.00 67 1012.5
20260509114047 61 202 6.0 11.0 0.00 0.00 0.00 68 1012.6
20260509113546 61 209 6.0 11.0 0.00 0.00 0.00 69 1012.5
20260509113044 60 229 6.0 12.0 0.00 0.00 0.00 71 1012.5
20260509112541 60 241 6.0 13.0 0.00 0.00 0.00 73 1012.5
20260509112040 59 213 5.0 11.0 0.00 0.00 0.00 75 1012.7
20260509111556 58 218 5.0 11.0 0.00 0.00 0.00 76 1012.7
20260509111038 58 198 6.0 12.0 0.00 0.00 0.00 78 1012.8
20260509110539 57 221 5.0 12.0 0.00 0.00 0.00 79 1012.8
20260509110038 57 227 3.0 9.0 0.00 0.00 0.00 79 1012.8
20260509105537 57 227 3.0 7.0 0.00 0.00 0.00 79 1012.7
20260509105037 57 227 3.0 6.0 0.00 0.00 0.00 79 1012.7
20260509104543 57 198 3.0 7.0 0.00 0.00 0.00 78 1012.6
20260509104036 57 220 3.0 11.0 0.00 0.00 0.00 78 1012.6
20260509103536 58 224 4.0 10.0 0.00 0.00 0.00 77 1012.6
20260509103038 58 204 4.0 11.0 0.00 0.00 0.00 77 1012.7
20260509102536 58 232 5.0 11.0 0.00 0.00 0.00 76 1012.7
20260509102036 58 222 4.0 13.0 0.00 0.00 0.00 76 1012.6
20260509101558 58 214 5.0 10.0 0.00 0.00 0.00 76 1012.6
20260509101034 58 216 5.0 9.0 0.00 0.00 0.00 75 1012.6
20260509100540 58 212 3.0 12.0 0.00 0.00 0.00 75 1012.5
20260509100040 58 205 5.0 12.0 0.00 0.00 0.00 74 1012.5
20260509095533 58 211 5.0 10.0 0.00 0.00 0.00 74 1012.5
20260509095034 58 222 5.0 11.0 0.00 0.00 0.00 74 1012.4
20260509094538 58 229 5.0 11.0 0.00 0.00 0.00 74 1012.4
20260509094033 58 211 4.0 10.0 0.00 0.00 0.00 74 1012.4
20260509093534 58 228 5.0 10.0 0.00 0.00 0.00 73 1012.4
20260509093033 58 240 6.0 12.0 0.00 0.00 0.00 72 1012.4
20260509092531 58 195 5.0 10.0 0.00 0.00 0.00 73 1012.5
20260509092032 58 235 5.0 12.0 0.00 0.00 0.00 72 1012.4
20260509091538 58 213 7.0 12.0 0.00 0.00 0.00 72 1012.3
20260509091031 58 215 5.0 11.0 0.00 0.00 0.00 72 1012.4
20260509090532 58 224 5.0 16.0 0.00 0.00 0.00 71 1012.5
20260509090036 58 225 8.0 16.0 0.00 0.00 0.00 71 1012.5
20260509085529 58 205 6.0 10.0 0.00 0.00 0.00 71 1012.4
20260509085029 58 212 5.0 10.0 0.00 0.00 0.00 71 1012.4
20260509084528 59 221 5.0 12.0 0.00 0.00 0.00 71 1012.5
20260509084030 59 221 6.0 12.0 0.00 0.00 0.00 70 1012.5
20260509083525 59 207 5.0 12.0 0.00 0.00 0.00 71 1012.5
20260509083024 59 209 7.0 12.0 0.00 0.00 0.00 70 1012.5
20260509082523 59 256 5.0 12.0 0.00 0.00 0.00 71 1012.6
20260509082022 59 219 5.0 13.0 0.00 0.00 0.00 70 1012.5
20260509081526 58 234 7.0 16.0 0.00 0.00 0.00 70 1012.5
20260509081020 58 231 7.0 16.0 0.00 0.00 0.00 70 1012.6
20260509080519 58 222 6.0 14.0 0.00 0.00 0.00 70 1012.5
20260509080019 58 194 7.0 12.0 0.00 0.00 0.00 70 1012.6
20260509075519 58 225 7.0 12.0 0.00 0.00 0.00 70 1012.6
20260509075019 58 217 5.0 11.0 0.00 0.00 0.00 70 1012.6
20260509074529 58 208 4.0 11.0 0.00 0.00 0.00 70 1012.6
20260509074018 58 211 5.0 11.0 0.00 0.00 0.00 70 1012.7
20260509073517 58 232 6.0 11.0 0.00 0.00 0.00 69 1012.6
20260509073017 58 235 5.0 11.0 0.00 0.00 0.00 69 1012.7
20260509072516 58 223 4.0 11.0 0.00 0.00 0.00 69 1012.8
20260509072015 58 229 5.0 14.0 0.00 0.00 0.00 70 1012.8
20260509071512 58 211 5.0 11.0 0.00 0.00 0.00 69 1012.8
20260509071012 57 236 4.0 11.0 0.00 0.00 0.00 69 1012.8
20260509070511 57 223 5.0 10.0 0.00 0.00 0.00 69 1012.7
20260509070012 57 242 4.0 10.0 0.00 0.00 0.00 69 1012.7
20260509065510 57 232 4.0 10.0 0.00 0.00 0.00 69 1012.6
20260509065012 57 227 4.0 9.0 0.00 0.00 0.00 69 1012.7
20260509064507 57 248 5.0 10.0 0.00 0.00 0.00 69 1012.7
20260509064008 57 232 5.0 10.0 0.00 0.00 0.00 69 1012.6
20260509063504 57 208 4.0 9.0 0.00 0.00 0.00 69 1012.7
20260509063002 57 239 5.0 11.0 0.00 0.00 0.00 69 1012.8
20260509062502 57 239 5.0 11.0 0.00 0.00 0.00 69 1012.8
20260509062000 57 214 5.0 10.0 0.00 0.00 0.00 68 1012.8
20260509061604 57 233 6.0 10.0 0.00 0.00 0.00 68 1012.8
20260509061101 56 233 5.0 10.0 0.00 0.00 0.00 69 1012.8
20260509060557 56 242 4.0 10.0 0.00 0.00 0.00 69 1012.9
20260509060056 56 246 5.0 10.0 0.00 0.00 0.00 69 1012.9
20260509055554 56 223 4.0 12.0 0.00 0.00 0.00 69 1013.0
20260509055057 56 230 7.0 10.0 0.00 0.00 0.00 69 1013.0
20260509054600 56 240 5.0 10.0 0.00 0.00 0.00 69 1013.0
20260509054050 56 222 3.0 7.0 0.00 0.00 0.00 70 1013.0
20260509053549 56 227 4.0 8.0 0.00 0.00 0.00 70 1012.9
20260509053050 55 223 4.0 8.0 0.00 0.00 0.00 70 1013.0
20260509052546 56 244 4.0 9.0 0.00 0.00 0.00 70 1013.1
20260509052045 55 229 4.0 9.0 0.00 0.00 0.00 70 1013.0
20260509051544 55 201 4.0 8.0 0.00 0.00 0.00 70 1013.1
20260509051044 55 257 4.0 8.0 0.00 0.00 0.00 69 1013.2
20260509050544 55 222 3.0 8.0 0.00 0.00 0.00 69 1013.2
20260509050044 55 242 3.0 7.0 0.00 0.00 0.00 69 1013.2
20260509045545 55 223 2.0 12.0 0.00 0.00 0.00 69 1013.2
20260509045044 55 231 4.0 12.0 0.00 0.00 0.00 69 1013.1
20260509044543 55 221 4.0 7.0 0.00 0.00 0.00 69 1013.2
20260509044042 55 229 4.0 8.0 0.00 0.00 0.00 69 1013.1
20260509043541 55 234 5.0 8.0 0.00 0.00 0.00 69 1013.2
20260509043041 55 240 5.0 9.0 0.00 0.00 0.00 69 1013.3
20260509042541 55 244 3.0 10.0 0.00 0.00 0.00 69 1013.3
20260509042043 55 279 5.0 10.0 0.00 0.00 0.00 69 1013.2
20260509041608 55 236 3.0 7.0 0.00 0.00 0.00 69 1013.3
20260509041038 55 217 3.0 6.0 0.00 0.00 0.00 68 1013.3
20260509040537 55 230 2.0 6.0 0.00 0.00 0.00 68 1013.3
20260509040038 55 213 3.0 6.0 0.00 0.00 0.00 68 1013.3
20260509035536 55 227 3.0 5.0 0.00 0.00 0.00 68 1013.4
20260509035036 55 226 2.0 5.0 0.00 0.00 0.00 68 1013.4
20260509034536 55 225 2.0 7.0 0.00 0.00 0.00 68 1013.4
20260509034039 55 216 3.0 7.0 0.00 0.00 0.00 68 1013.4
20260509033535 55 219 2.0 6.0 0.00 0.00 0.00 68 1013.4
20260509033039 55 217 2.0 6.0 0.00 0.00 0.00 69 1013.4
20260509032535 55 217 3.0 6.0 0.00 0.00 0.00 69 1013.3
20260509032038 55 227 3.0 7.0 0.00 0.00 0.00 70 1013.3
20260509031537 54 234 3.0 6.0 0.00 0.00 0.00 71 1013.3
20260509031033 54 230 1.0 5.0 0.00 0.00 0.00 72 1013.2
20260509030533 54 217 2.0 5.0 0.00 0.00 0.00 72 1013.2
20260509030034 54 204 0.0 7.0 0.00 0.00 0.00 72 1013.2
20260509025532 54 225 1.0 7.0 0.00 0.00 0.00 72 1013.2
20260509025032 53 197 2.0 5.0 0.00 0.00 0.00 73 1013.1
20260509024532 53 193 0.0 4.0 0.00 0.00 0.00 73 1013.1
20260509024033 54 193 0.0 4.0 0.00 0.00 0.00 73 1013.2
20260509023533 54 215 0.0 6.0 0.00 0.00 0.00 72 1013.1
20260509023032 54 196 1.0 6.0 0.00 0.00 0.00 72 1013.2
20260509022532 54 213 1.0 4.0 0.00 0.00 0.00 71 1013.2
20260509022032 55 216 0.0 4.0 0.00 0.00 0.00 70 1013.2
20260509021535 55 198 1.0 4.0 0.00 0.00 0.00 70 1013.3
20260509021035 55 250 1.0 5.0 0.00 0.00 0.00 69 1013.3
20260509020531 55 192 0.0 7.0 0.00 0.00 0.00 69 1013.2
20260509020043 55 205 1.0 7.0 0.00 0.00 0.00 68 1013.2
20260509015531 55 213 2.0 4.0 0.00 0.00 0.00 68 1013.1
20260509015030 56 205 1.0 3.0 0.00 0.00 0.00 67 1013.1
20260509014532 56 185 1.0 5.0 0.00 0.00 0.00 67 1013.2
20260509014030 56 217 2.0 5.0 0.00 0.00 0.00 67 1013.1
20260509013530 56 221 2.0 5.0 0.00 0.00 0.00 67 1013.1
20260509013040 56 218 2.0 6.0 0.00 0.00 0.00 68 1013.1
20260509012532 56 223 1.0 6.0 0.00 0.00 0.00 69 1013.1
20260509012030 56 206 2.0 8.0 0.00 0.00 0.00 69 1013.0
20260509011530 56 215 3.0 7.0 0.00 0.00 0.00 70 1012.9
20260509011028 56 209 4.0 6.0 0.00 0.00 0.00 70 1012.8
20260509010532 56 228 3.0 9.0 0.00 0.00 0.00 70 1012.7
20260509010028 56 199 5.0 9.0 0.00 0.00 0.00 70 1012.6
20260509005529 56 220 5.0 8.0 0.00 0.00 0.00 71 1012.5
20260509005029 56 221 3.0 7.0 0.00 0.00 0.00 71 1012.5
20260509004532 56 218 3.0 7.0 0.00 0.00 0.00 71 1012.4
20260509004027 56 215 3.0 6.0 0.00 0.00 0.00 70 1012.4
20260509003528 56 212 2.0 4.0 0.00 0.00 0.00 70 1012.4
20260509003028 57 213 2.0 5.0 0.00 0.00 0.00 70 1012.3
20260509002527 57 229 2.0 5.0 0.00 0.00 0.00 69 1012.3
20260509002027 57 219 2.0 7.0 0.00 0.00 0.00 69 1012.2
20260509001527 57 227 2.0 6.0 0.00 0.00 0.00 68 1012.2